Weather in Kapyrevshchina

Russia / Smolensk Oblast     55°13′50″N   32°51′45″E
temp.,
°C
wind,
m/s
gust,
m/s
humid.,
%
clouds,
%
prec.,
mm/h
press.,
hPa
HPBL,
m
13 june, sun
sun1300:00+12ssw23965 0.0 100653
03:00+11s25973 0.0 100592
06:00+13sse26945 0.0 1005181
09:00+19sse366617 0.0 1004670
12:00+22s4651100 0.3 10041593
15:00+22s455692 0.4 10041428
18:00+20sse357422 0.9 1005758
21:00+16sse229427 1.5 100623
14 june, mon
mon1400:00+14sse229749 0.4 100720
03:00+13se119770 0.4 100911
06:00+14s119771 0.0 101167
09:00+19ssw118173 0.0 1013608
12:00+21s116971 0.2 1015935
15:00+25ssw234931 0.3 10141906
18:00+20nnw338121 0.8 1015377
21:00+17n01945 1.1 101511
15 june, tue
tue1500:00+15w00965 0.0 101611
03:00+14sw11972 0.0 101514
06:00+15wsw139711 0.0 101599
09:00+20w24700 0.0 1015649
12:00+23wsw34510 0.0 10141452
15:00+25w344672 0.0 10121993
18:00+20nw367097 0.0 1012410
21:00+18w2578100 0.1 1012131
16 june, wed
wed1600:00+14wnw2782100 0.0 1012168
03:00+13nw2895100 0.0 1013203
06:00+15nnw3892100 0.0 1014375
09:00+18n457499 0.1 1015903
12:00+21n45489 0.1 10161587
15:00+23n46340 0.1 10162026
18:00+22n46420 0.0 10171969
21:00+15n39726 0.0 1019176
17 june, thu
thu1700:00+11n310775 0.0 1022198
03:00+10nne26790 0.0 1023102
06:00+11nne28750 0.0 1024177
09:00+18ne35491 0.0 1024625
12:00+22ene34385 0.0 10251586
15:00+23ene34360 0.0 10241686
18:00+22e34485 0.0 10241122
21:00+15e22750 0.0 102514